GalileoSat-16

operational
NORAD ID: 41860 Int'l Des: 2016-069 Owner: GSAEU Country: I-EU Constellation: Galileo
MEOCIRCULAR

GalileoSat-16について

説明を読み込み中...

リアルタイム位置

3D地球を読み込み中...

次回通過

高度履歴

Altitude vs Time

uPlot chart will show altitude changes over time

軌道要素

1 41860U 16069B 25296.20613666 .00000046 00000-0 00000-0 0 9995
2 41860 55.3472 107.6448 0002826 43.2112 316.8317 1.70474387 55615
Epoch: Oct 23, 2025 • Age: 73 hours

現在のステータス

高度 23221.5 km
速度 3.67 km/s
衛星直下点 50.78°N, 39.24°E
打ち上げ日 Nov 17, 2016
運用期間 8.9 years
タイプ navigation

技術仕様

分類 Payload
質量 738.00 kg
乾燥質量 700.00 kg
総質量 738.00 kg
長さ 2.70 m
直径 1.60 m
スパン 14.50 m
形状 Box+2 pan
製造者 OHB
バスタイプ GalileoSat
フェーズステータス In Orbit
所有者/国 GSAEU/I-EU

大規模コンステレーション

Loading constellations...